When you browse on this site, cookies collect data to enhance your experience and personalize the content and advertising you see.
Visit our Privacy Policy to learn more. By continuing to use the site, you agree to this use of cookies and data.
  • en Suisse
  • Liste des pays
  • À 7 jours
  • Température de l'eau
  • Carte satellitaire
  • Carte météo
  • Widgets météo
  • user-avatar
    Se connecter

    Météo par heure à Barra

    Ce jour, 25 Mai, Samedi

    Heure Température Précipitation Vent Pression Humidité
    00:00 +21°C° 0.2 mm 3 m/s 752 mmHg 95%
    01:00 +20°C° 0.2 mm 3 m/s 752 mmHg 95%
    02:00 +20°C° 0.2 mm 3 m/s 751 mmHg 96%
    03:00 +20°C° 0.2 mm 3 m/s 751 mmHg 96%
    04:00 +20°C° 0 mm 3 m/s 751 mmHg 96%
    05:00 +20°C° 0.2 mm 3 m/s 751 mmHg 97%
    06:00 +20°C° 0.2 mm 3 m/s 751 mmHg 97%
    07:00 +20°C° 0.2 mm 3 m/s 751 mmHg 97%
    08:00 +21°C° 0.3 mm 3 m/s 751 mmHg 95%
    09:00 +21°C° 0.3 mm 3 m/s 751 mmHg 93%
    10:00 +22°C° 0.3 mm 3 m/s 751 mmHg 91%
    11:00 +22°C° 0.4 mm 3 m/s 751 mmHg 91%
    12:00 +22°C° 0.4 mm 3 m/s 750 mmHg 90%
    13:00 +22°C° 0.4 mm 3 m/s 750 mmHg 89%
    14:00 +24°C° 0.4 mm 3 m/s 750 mmHg 87%
    15:00 +24°C° 0.4 mm 3 m/s 750 mmHg 85%
    16:00 +24°C° 0.4 mm 3 m/s 749 mmHg 83%
    17:00 +22°C° 0.4 mm 3 m/s 750 mmHg 87%
    18:00 +21°C° 0.4 mm 2 m/s 750 mmHg 90%
    19:00 +21°C° 0.4 mm 2 m/s 750 mmHg 94%
    20:00 +20°C° 0.3 mm 2 m/s 751 mmHg 94%
    21:00 +20°C° 0.3 mm 2 m/s 751 mmHg 95%
    22:00 +20°C° 0.3 mm 2 m/s 751 mmHg 95%
    23:00 +20°C° 0.5 mm 2 m/s 751 mmHg 95%

    Demain, 26 Mai, Dimanche

    Heure Température Précipitation Vent Pression Humidité
    00:00 +20°C° 0.5 mm 2 m/s 751 mmHg 95%
    01:00 +20°C° 0.5 mm 2 m/s 751 mmHg 95%
    02:00 +20°C° 0.6 mm 2 m/s 751 mmHg 95%
    03:00 +20°C° 0.6 mm 3 m/s 750 mmHg 95%
    04:00 +20°C° 0.6 mm 3 m/s 750 mmHg 95%
    05:00 +20°C° 0.4 mm 3 m/s 750 mmHg 94%
    06:00 +21°C° 0.4 mm 3 m/s 751 mmHg 94%
    07:00 +21°C° 0.4 mm 3 m/s 751 mmHg 93%
    08:00 +22°C° 0.6 mm 3 m/s 751 mmHg 89%
    09:00 +23°C° 0.6 mm 4 m/s 751 mmHg 86%
    10:00 +25°C° 0.6 mm 4 m/s 751 mmHg 82%
    11:00 +25°C° 0.9 mm 4 m/s 751 mmHg 84%
    12:00 +23°C° 0.9 mm 4 m/s 750 mmHg 87%
    13:00 +23°C° 0.9 mm 4 m/s 750 mmHg 89%
    14:00 +24°C° 0.6 mm 3 m/s 749 mmHg 89%
    15:00 +24°C° 0.6 mm 3 m/s 749 mmHg 89%
    16:00 +24°C° 0.6 mm 3 m/s 749 mmHg 90%
    17:00 +22°C° 0.3 mm 3 m/s 749 mmHg 91%
    18:00 +22°C° 0.3 mm 3 m/s 750 mmHg 93%
    19:00 +21°C° 0.3 mm 3 m/s 750 mmHg 94%
    20:00 +21°C° 0.1 mm 2 m/s 750 mmHg 95%
    21:00 +20°C° 0.1 mm 2 m/s 751 mmHg 95%
    22:00 +20°C° 0.1 mm 2 m/s 751 mmHg 95%
    23:00 +20°C° 0 mm 2 m/s 751 mmHg 96%

    Après-demain, 27 Mai, Lundi

    Heure Température Précipitation Vent Pression Humidité
    00:00 +20°C° 0 mm 2 m/s 751 mmHg 96%
    01:00 +20°C° 0 mm 2 m/s 751 mmHg 96%
    02:00 +20°C° 0.1 mm 2 m/s 751 mmHg 96%
    03:00 +20°C° 0.1 mm 2 m/s 750 mmHg 96%
    04:00 +20°C° 0.1 mm 2 m/s 750 mmHg 96%
    05:00 +20°C° 0.1 mm 2 m/s 750 mmHg 96%
    06:00 +20°C° 0.1 mm 2 m/s 751 mmHg 95%
    07:00 +20°C° 0.1 mm 2 m/s 751 mmHg 95%
    08:00 +21°C° 0.1 mm 2 m/s 751 mmHg 90%
    09:00 +23°C° 0.1 mm 2 m/s 751 mmHg 84%
    10:00 +25°C° 0.1 mm 2 m/s 752 mmHg 79%
    11:00 +25°C° 0.1 mm 2 m/s 751 mmHg 74%
    12:00 +26°C° 0.1 mm 3 m/s 751 mmHg 70%
    13:00 +27°C° 0.1 mm 3 m/s 750 mmHg 65%
    14:00 +27°C° 0 mm 3 m/s 750 mmHg 66%
    15:00 +26°C° 0 mm 3 m/s 749 mmHg 66%
    16:00 +26°C° 0 mm 3 m/s 749 mmHg 67%
    17:00 +25°C° 0 mm 2 m/s 750 mmHg 74%
    18:00 +23°C° 0 mm 2 m/s 750 mmHg 80%
    19:00 +21°C° 0 mm 2 m/s 751 mmHg 87%
    20:00 +21°C° 0 mm 2 m/s 751 mmHg 87%
    21:00 +21°C° 0 mm 2 m/s 751 mmHg 88%
    22:00 +21°C° 0 mm 2 m/s 752 mmHg 88%
    23:00 +20°C° 0 mm 2 m/s 751 mmHg 90%

    28 Mai, Mardi

    Heure Température Précipitation Vent Pression Humidité
    00:00 +20°C° 0 mm 2 m/s 751 mmHg 92%
    01:00 +19°C° 0 mm 2 m/s 751 mmHg 94%
    02:00 +19°C° 0 mm 2 m/s 751 mmHg 93%
    03:00 +19°C° 0 mm 2 m/s 750 mmHg 93%
    04:00 +19°C° 0 mm 2 m/s 750 mmHg 92%
    05:00 +19°C° 0 mm 2 m/s 750 mmHg 91%
    06:00 +19°C° 0 mm 2 m/s 751 mmHg 89%
    07:00 +20°C° 0 mm 2 m/s 751 mmHg 87%
    08:00 +21°C° 0 mm 2 m/s 751 mmHg 80%
    09:00 +24°C° 0 mm 2 m/s 752 mmHg 73%
    10:00 +26°C° 0 mm 2 m/s 752 mmHg 66%
    11:00 +26°C° 0 mm 2 m/s 751 mmHg 64%
    12:00 +27°C° 0 mm 2 m/s 751 mmHg 63%
    13:00 +27°C° 0 mm 3 m/s 750 mmHg 61%
    14:00 +27°C° 0 mm 3 m/s 750 mmHg 63%
    15:00 +26°C° 0 mm 3 m/s 750 mmHg 64%
    16:00 +26°C° 0 mm 3 m/s 749 mmHg 66%
    17:00 +25°C° 0.1 mm 2 m/s 750 mmHg 73%
    18:00 +23°C° 0.1 mm 2 m/s 750 mmHg 81%
    19:00 +21°C° 0.1 mm 2 m/s 751 mmHg 88%
    20:00 +20°C° 0.2 mm 2 m/s 751 mmHg 90%
    21:00 +20°C° 0.2 mm 2 m/s 751 mmHg 92%
    22:00 +21°C° 0.2 mm 1 m/s 752 mmHg 93%
    23:00 +21°C° 0.3 mm 1 m/s 751 mmHg 94%

    29 Mai, Mercredi

    Heure Température Précipitation Vent Pression Humidité
    00:00 +21°C° 0.3 mm 1 m/s 751 mmHg 95%
    01:00 +20°C° 0.3 mm 1 m/s 751 mmHg 96%
    02:00 +20°C° 0.2 mm 1 m/s 751 mmHg 96%
    03:00 +20°C° 0.2 mm 1 m/s 750 mmHg 96%
    04:00 +20°C° 0.2 mm 1 m/s 750 mmHg 96%
    05:00 +20°C° 0.1 mm 1 m/s 750 mmHg 96%
    06:00 +20°C° 0.1 mm 1 m/s 751 mmHg 96%
    07:00 +20°C° 0.1 mm 2 m/s 751 mmHg 95%
    08:00 +21°C° 0.2 mm 2 m/s 751 mmHg 89%
    09:00 +24°C° 0.2 mm 2 m/s 752 mmHg 83%
    10:00 +25°C° 0.2 mm 2 m/s 752 mmHg 76%
    11:00 +25°C° 0.3 mm 2 m/s 751 mmHg 75%
    12:00 +26°C° 0.3 mm 2 m/s 751 mmHg 73%
    13:00 +26°C° 0.3 mm 2 m/s 750 mmHg 72%
    14:00 +26°C° 0.3 mm 2 m/s 750 mmHg 73%
    15:00 +25°C° 0.3 mm 2 m/s 749 mmHg 74%
    16:00 +25°C° 0.3 mm 2 m/s 749 mmHg 75%
    17:00 +24°C° 0.1 mm 2 m/s 750 mmHg 81%
    18:00 +23°C° 0.1 mm 2 m/s 750 mmHg 87%
    19:00 +21°C° 0.1 mm 1 m/s 751 mmHg 93%
    20:00 +21°C° 0.1 mm 1 m/s 751 mmHg 93%
    21:00 +21°C° 0.1 mm 1 m/s 751 mmHg 94%
    22:00 +21°C° 0.1 mm 1 m/s 751 mmHg 95%
    23:00 +21°C° 0.1 mm 1 m/s 751 mmHg 95%

    30 Mai, Jeudi

    Heure Température Précipitation Vent Pression Humidité
    00:00 +21°C° 0.1 mm 1 m/s 751 mmHg 95%
    01:00 +21°C° 0.1 mm 1 m/s 750 mmHg 96%
    02:00 +21°C° 0.1 mm 1 m/s 750 mmHg 96%
    03:00 +21°C° 0.1 mm 1 m/s 750 mmHg 95%
    04:00 +21°C° 0.1 mm 1 m/s 750 mmHg 95%
    05:00 +21°C° 0.1 mm 1 m/s 750 mmHg 95%
    06:00 +21°C° 0.1 mm 1 m/s 751 mmHg 95%
    07:00 +20°C° 0.1 mm 2 m/s 751 mmHg 95%
    08:00 +23°C° 0.1 mm 2 m/s 751 mmHg 88%
    09:00 +24°C° 0.1 mm 2 m/s 752 mmHg 81%
    10:00 +26°C° 0.1 mm 2 m/s 752 mmHg 74%
    11:00 +26°C° 0.7 mm 2 m/s 752 mmHg 75%
    12:00 +26°C° 0.7 mm 2 m/s 751 mmHg 76%
    13:00 +26°C° 0.7 mm 2 m/s 751 mmHg 78%
    14:00 +25°C° 0.7 mm 2 m/s 751 mmHg 83%
    15:00 +23°C° 0.7 mm 2 m/s 751 mmHg 89%
    16:00 +21°C° 0.7 mm 2 m/s 751 mmHg 95%
    17:00 +21°C° 0.3 mm 2 m/s 751 mmHg 95%
    18:00 +21°C° 0.3 mm 2 m/s 752 mmHg 95%
    19:00 +21°C° 0.3 mm 2 m/s 752 mmHg 96%
    20:00 +20°C° 0.4 mm 2 m/s 752 mmHg 96%
    21:00 +20°C° 0.4 mm 2 m/s 753 mmHg 96%
    22:00 +20°C° 0.4 mm 2 m/s 753 mmHg 96%
    23:00 +20°C° 0.6 mm 2 m/s 753 mmHg 96%
    Voir plus